Simultaneous Nadir Overpasses (SNOs) Predictions

Prediction of SNOs between NPP and PACE Satellite Orbit:

Table of predicted SNOs for the next 14.0 days since TLE Epoch: 1/10/2025
Index Date (NPP) Time (NPP) Lat,Lon (NPP) SZA (NPP ) Date (PACE) Time (PACE) Lat,Lon (PACE) SZA (PACE ) Distance(km) Time Diff (sec)
1 01/11/2025 13:16:29 79.78, -55.87 103.57 01/11/2025 13:16:13 79.79, -56.00 103.60 2.80 16
2 01/13/2025 16:52:16 -79.91, 68.93 76.53 01/13/2025 16:53:05 -79.92, 68.80 76.53 2.60 49
3 01/13/2025 17:42:54 79.70,-121.79 103.10 01/13/2025 17:42:09 79.71,-121.91 103.13 2.52 45
4 01/15/2025 21:18:42 -79.87, 2.72 76.98 01/15/2025 21:19:01 -79.87, 2.72 76.99 0.30 19
5 01/15/2025 22:08:28 77.74,-175.57 99.77 01/15/2025 22:07:15 77.53,-176.73 99.72 35.96 73
6 01/18/2025 01:45:07 -79.80, -63.24 77.51 01/18/2025 01:44:56 -79.80, -63.27 77.50 0.52 11
7 01/20/2025 05:20:55 79.98, 61.04 102.40 01/20/2025 05:21:48 79.98, 61.20 102.35 3.12 53
8 01/20/2025 06:11:33 -79.77,-129.53 78.01 01/20/2025 06:10:51 -79.76,-129.45 78.01 1.86 42
9 01/22/2025 09:47:20 79.93, -4.98 101.82 01/22/2025 09:47:42 79.92, -4.86 101.79 2.46 22
10 01/22/2025 10:37:57 -79.67, 164.70 78.65 01/22/2025 10:36:44 -79.67, 164.74 78.63 0.87 73



Historial Predications of SNOs between NPP and PACE
